STARLINK-33876, 63639

Orbit data source: Space-Track

STARLINK-33876, 63639 is a payload satellite owned by SpaceX/Seattle (US) in LEO that was launched on Fri, 25 Apr 2025 UTC via an FALCON 9 launch vehicle from the Air Force Eastern Test Range (AFETR). Payload-class satellites include a variety of spacecraft equipped with specific instruments for various scientific and technological missions. These include communications satellites like Starlink; space stations such as the ISS; scientific satellites like the Hubble; Earth observation satellites from companies like Planet Labs, Umbra, and HawkEye 360; GPS; miniature CubeSats for education and research; and military/defense satellites.

Loading next visibility...
Identifier
63639, 2025-083F
Orbit
LEO
Country
Flag of USUS
Related business
Manufacturer
SpaceX/Seattle
Mission
Operational Commercial Communications
Bus & Motor
STARLINK V2MO, Unknown motor
Mass
575 kg wet, ~530 kg dry
Launch date (UTC)
2025-04-25 (1 year ago)
Launch vehicle
FALCON 9
Launch site
Air Force Eastern Test Range (AFETR)
Object type
Payload
Rocket body
Debris
Shape & HBR
Box + 2 Pan, 17.7 m
Radar Cross Section
36.964 m², Large (>1 m²)

Expand to show TLE details & history
Last TLE update: 16 hours ago

TLE from 16 hours ago
0 STARLINK-33876
1 63639U 25083F   26171.19639385  .00003257  00000-0  12777-3 0  9990
2 63639  43.0013 146.3213 0001065 282.4641  77.6092 15.27596630 65746
Epoch: 2026-06-20T04:42Z
TLE epoch observation values (Epoch: 2026-06-20T04:42:48.428Z)
Latitude
0.00001°
Longitude
167.20504°
Altitude
482.618 km
Speed
7.626 km/s
True Right ascension
09h 45m 17s
True Declination
0° 00' 00"
Sunlit
Object was in daylight at epoch
Visualization orbit readout
Latitude
Unknown
Longitude
Unknown
Altitude
Unknown
Speed
Unknown
Apparent Right ascension
Unknown
Apparent Declination
Unknown
Sunlit
N/A
Visualization observer readout
Local Sidereal Time
07:18:26
Azimuth
Unknown
Elevation
Unknown
Doppler factor
Unknown
Orbital elements
Apogee altitude
485.675 km
Perigee altitude
484.213 km
Semi-major axis
6,863.081 km
Eccentricity
0.00011
Inclination
43.0013°
RAAN
146.3213°
Arg. of periapsis
282.4641°
True anomaly
77.62112°
Mean anomaly
77.6092°
Eccentric anomaly
77.61516°
Mean motion
3.81737 °/min
Orbital period
94.31 mins
BSTAR
0.00012777
Loading maneuver chart data...
Computing Atmospheric mass density...
Loading historical data...
Loading historical data...
Loading historical data...
Loading historical data...
Loading historical data...
Loading historical data...
Loading historical data...

Documentation

Showing up to 5 results
|